When you browse on this site, cookies collect data to enhance your experience and personalize the content and advertising you see.
Visit our Privacy Policy to learn more. By continuing to use the site, you agree to this use of cookies and data.
  • Em Portugal
  • Lista de países
  • Para 7 dias
  • Temperatura da água
  • Mapas de satélite
  • Mapa do tempo
  • Widgets de tempo
  • user-avatar
    Iniciar Sessão

    Previsão horária em Borovec

    Hoje, 18 Abril, Quinta-feira

    Tempo Temperatura Precipitação Vento Pressão Humidade
    00:00 +6°C° 0 mm 0 m/s 713 mmHg 86%
    01:00 +5°C° 0 mm 0 m/s 713 mmHg 88%
    02:00 +6°C° 0 mm 1 m/s 713 mmHg 89%
    03:00 +6°C° 0 mm 1 m/s 713 mmHg 90%
    04:00 +5°C° 0 mm 1 m/s 713 mmHg 91%
    05:00 +5°C° 0 mm 1 m/s 713 mmHg 91%
    06:00 +6°C° 0 mm 1 m/s 714 mmHg 87%
    07:00 +7°C° 0 mm 1 m/s 714 mmHg 82%
    08:00 +9°C° 0 mm 1 m/s 714 mmHg 73%
    09:00 +9°C° 0 mm 2 m/s 715 mmHg 66%
    10:00 +10°C° 0 mm 3 m/s 715 mmHg 59%
    11:00 +11°C° 0 mm 4 m/s 715 mmHg 53%
    12:00 +12°C° 0 mm 4 m/s 715 mmHg 52%
    13:00 +12°C° 0 mm 4 m/s 715 mmHg 52%
    14:00 +12°C° 0 mm 5 m/s 715 mmHg 52%
    15:00 +12°C° 0 mm 5 m/s 715 mmHg 55%
    16:00 +10°C° 0 mm 5 m/s 715 mmHg 59%
    17:00 +10°C° 0 mm 5 m/s 715 mmHg 63%
    18:00 +8°C° 0 mm 4 m/s 715 mmHg 71%
    19:00 +8°C° 0 mm 3 m/s 715 mmHg 80%
    20:00 +7°C° 0 mm 2 m/s 716 mmHg 88%
    21:00 +6°C° 0 mm 2 m/s 716 mmHg 90%
    22:00 +7°C° 0 mm 1 m/s 716 mmHg 92%
    23:00 +6°C° 0 mm 1 m/s 717 mmHg 93%

    Amanhã, 19 Abril, Sexta-feira

    Tempo Temperatura Precipitação Vento Pressão Humidade
    00:00 +6°C° 0 mm 1 m/s 717 mmHg 93%
    01:00 +5°C° 0 mm 1 m/s 717 mmHg 93%
    02:00 +5°C° 0 mm 1 m/s 717 mmHg 92%
    03:00 +5°C° 0 mm 1 m/s 717 mmHg 91%
    04:00 +4°C° 0 mm 0 m/s 717 mmHg 90%
    05:00 +4°C° 0 mm 0 m/s 716 mmHg 89%
    06:00 +5°C° 0 mm 0 m/s 717 mmHg 81%
    07:00 +8°C° 0 mm 1 m/s 717 mmHg 74%
    08:00 +9°C° 0 mm 1 m/s 717 mmHg 67%
    09:00 +11°C° 0 mm 1 m/s 717 mmHg 63%
    10:00 +12°C° 0 mm 2 m/s 716 mmHg 58%
    11:00 +13°C° 0 mm 2 m/s 716 mmHg 53%
    12:00 +13°C° 0.1 mm 3 m/s 716 mmHg 52%
    13:00 +13°C° 0.1 mm 3 m/s 715 mmHg 51%
    14:00 +14°C° 0.1 mm 4 m/s 715 mmHg 50%
    15:00 +14°C° 0.5 mm 4 m/s 715 mmHg 52%
    16:00 +14°C° 0.5 mm 4 m/s 714 mmHg 55%
    17:00 +13°C° 0.5 mm 4 m/s 714 mmHg 58%
    18:00 +12°C° 0.6 mm 3 m/s 714 mmHg 66%
    19:00 +10°C° 0.6 mm 3 m/s 714 mmHg 74%
    20:00 +9°C° 0.6 mm 2 m/s 714 mmHg 82%
    21:00 +8°C° 0.1 mm 2 m/s 715 mmHg 84%
    22:00 +7°C° 0.1 mm 2 m/s 715 mmHg 87%
    23:00 +7°C° 0.1 mm 2 m/s 716 mmHg 89%

    Depois de amanhã, 20 Abril, Sábado

    Tempo Temperatura Precipitação Vento Pressão Humidade
    00:00 +6°C° 0 mm 2 m/s 716 mmHg 88%
    01:00 +5°C° 0 mm 2 m/s 716 mmHg 87%
    02:00 +5°C° 0 mm 2 m/s 716 mmHg 87%
    03:00 +4°C° 0 mm 2 m/s 716 mmHg 88%
    04:00 +5°C° 0 mm 1 m/s 716 mmHg 90%
    05:00 +4°C° 0 mm 1 m/s 716 mmHg 91%
    06:00 +5°C° 0 mm 1 m/s 717 mmHg 87%
    07:00 +6°C° 0 mm 1 m/s 717 mmHg 83%
    08:00 +6°C° 0 mm 2 m/s 718 mmHg 79%
    09:00 +7°C° 0 mm 2 m/s 718 mmHg 67%
    10:00 +9°C° 0 mm 3 m/s 718 mmHg 56%
    11:00 +10°C° 0 mm 3 m/s 718 mmHg 45%
    12:00 +11°C° 0 mm 3 m/s 718 mmHg 42%
    13:00 +12°C° 0 mm 4 m/s 718 mmHg 40%
    14:00 +12°C° 0 mm 4 m/s 718 mmHg 37%
    15:00 +12°C° 0 mm 4 m/s 717 mmHg 39%
    16:00 +12°C° 0 mm 3 m/s 717 mmHg 41%
    17:00 +11°C° 0 mm 3 m/s 717 mmHg 42%
    18:00 +9°C° 0 mm 3 m/s 717 mmHg 51%
    19:00 +8°C° 0 mm 2 m/s 717 mmHg 59%
    20:00 +7°C° 0 mm 1 m/s 717 mmHg 67%
    21:00 +6°C° 0 mm 1 m/s 717 mmHg 71%
    22:00 +6°C° 0 mm 1 m/s 717 mmHg 74%
    23:00 +4°C° 0 mm 0 m/s 717 mmHg 78%

    21 Abril, Domingo

    Tempo Temperatura Precipitação Vento Pressão Humidade
    00:00 +4°C° 0 mm 0 m/s 717 mmHg 78%
    01:00 +3°C° 0 mm 0 m/s 717 mmHg 78%
    02:00 +3°C° 0 mm 0 m/s 717 mmHg 79%
    03:00 +4°C° 0 mm 1 m/s 717 mmHg 78%
    04:00 +4°C° 0 mm 1 m/s 716 mmHg 77%
    05:00 +3°C° 0 mm 1 m/s 716 mmHg 76%
    06:00 +5°C° 0 mm 1 m/s 716 mmHg 67%
    07:00 +7°C° 0 mm 1 m/s 716 mmHg 58%
    08:00 +9°C° 0 mm 1 m/s 716 mmHg 50%
    09:00 +11°C° 0 mm 1 m/s 716 mmHg 44%
    10:00 +13°C° 0 mm 1 m/s 716 mmHg 39%
    11:00 +15°C° 0 mm 1 m/s 716 mmHg 34%
    12:00 +16°C° 0 mm 1 m/s 716 mmHg 33%
    13:00 +18°C° 0 mm 1 m/s 715 mmHg 32%
    14:00 +19°C° 0 mm 1 m/s 715 mmHg 31%
    15:00 +18°C° 0 mm 1 m/s 715 mmHg 32%
    16:00 +18°C° 0 mm 1 m/s 714 mmHg 33%
    17:00 +16°C° 0 mm 1 m/s 714 mmHg 34%
    18:00 +14°C° 0 mm 1 m/s 714 mmHg 40%
    19:00 +13°C° 0 mm 1 m/s 714 mmHg 47%
    20:00 +11°C° 0 mm 1 m/s 713 mmHg 53%
    21:00 +10°C° 0 mm 1 m/s 714 mmHg 56%
    22:00 +9°C° 0 mm 1 m/s 714 mmHg 60%
    23:00 +8°C° 0 mm 1 m/s 714 mmHg 63%

    22 Abril, Segunda-feira

    Tempo Temperatura Precipitação Vento Pressão Humidade
    00:00 +7°C° 0 mm 1 m/s 714 mmHg 65%
    01:00 +7°C° 0 mm 1 m/s 714 mmHg 66%
    02:00 +7°C° 0 mm 1 m/s 714 mmHg 68%
    03:00 +6°C° 0 mm 1 m/s 714 mmHg 69%
    04:00 +6°C° 0 mm 1 m/s 713 mmHg 71%
    05:00 +6°C° 0 mm 1 m/s 713 mmHg 73%
    06:00 +7°C° 0 mm 1 m/s 714 mmHg 67%
    07:00 +9°C° 0 mm 1 m/s 714 mmHg 61%
    08:00 +11°C° 0 mm 1 m/s 714 mmHg 56%
    09:00 +13°C° 0 mm 1 m/s 714 mmHg 50%
    10:00 +15°C° 0 mm 2 m/s 714 mmHg 45%
    11:00 +17°C° 0 mm 2 m/s 714 mmHg 39%
    12:00 +18°C° 0 mm 2 m/s 714 mmHg 37%
    13:00 +18°C° 0 mm 2 m/s 714 mmHg 36%
    14:00 +19°C° 0 mm 2 m/s 714 mmHg 34%
    15:00 +18°C° 0 mm 3 m/s 713 mmHg 38%
    16:00 +18°C° 0 mm 3 m/s 713 mmHg 41%
    17:00 +17°C° 0 mm 4 m/s 712 mmHg 45%
    18:00 +14°C° 0 mm 4 m/s 712 mmHg 55%
    19:00 +12°C° 0 mm 3 m/s 713 mmHg 64%
    20:00 +10°C° 0 mm 3 m/s 713 mmHg 74%
    21:00 +10°C° 0 mm 3 m/s 713 mmHg 77%
    22:00 +9°C° 0 mm 3 m/s 713 mmHg 81%
    23:00 +9°C° 0 mm 2 m/s 714 mmHg 84%

    23 Abril, Terça-feira

    Tempo Temperatura Precipitação Vento Pressão Humidade
    00:00 +9°C° 0 mm 2 m/s 714 mmHg 85%
    01:00 +8°C° 0 mm 2 m/s 714 mmHg 87%
    02:00 +8°C° 0 mm 2 m/s 714 mmHg 88%
    03:00 +8°C° 0.4 mm 3 m/s 714 mmHg 88%
    04:00 +8°C° 0.4 mm 3 m/s 714 mmHg 88%
    05:00 +7°C° 0.4 mm 3 m/s 714 mmHg 87%
    06:00 +8°C° 0.2 mm 3 m/s 714 mmHg 84%
    07:00 +8°C° 0.2 mm 3 m/s 714 mmHg 80%
    08:00 +9°C° 0.2 mm 3 m/s 714 mmHg 77%
    09:00 +10°C° 0.2 mm 3 m/s 714 mmHg 70%
    10:00 +12°C° 0.2 mm 4 m/s 714 mmHg 64%
    11:00 +13°C° 0.2 mm 4 m/s 715 mmHg 58%
    12:00 +15°C° 0 mm 4 m/s 714 mmHg 53%
    13:00 +17°C° 0 mm 4 m/s 714 mmHg 49%
    14:00 +17°C° 0 mm 5 m/s 713 mmHg 44%
    15:00 +17°C° 0 mm 5 m/s 713 mmHg 45%
    16:00 +18°C° 0 mm 4 m/s 713 mmHg 46%
    17:00 +17°C° 0 mm 4 m/s 712 mmHg 48%
    18:00 +14°C° 0 mm 4 m/s 712 mmHg 55%
    19:00 +12°C° 0 mm 4 m/s 712 mmHg 63%
    20:00 +10°C° 0 mm 3 m/s 712 mmHg 70%
    21:00 +9°C° 0 mm 3 m/s 712 mmHg 73%
    22:00 +9°C° 0 mm 2 m/s 713 mmHg 76%
    23:00 +8°C° 0 mm 2 m/s 713 mmHg 79%
    Mostrar mais